Ana Sayfa
METAR-TAF:

METAR-TAF

Havaalanları :

Port Isabel-Cameron County Airport

Port Isabel, Teksas, Amerika Birleşik Devletleri

Enlem: 26-09-33N, Boylam: 097-20-15W, yükseklik: 5 m

Güncel hava durumu gözlemi

Rapor saat 09:53 UTC de 37 dakika önce yapıldı.
Rüzgar kuzeydan 13 kt
Sıcaklık 14°C
Nem 47%
Basınç 1017 hPa
Görüş mesafesi: 16.1 km
Açık gökyüzü

METAR: KPIL 290953Z AUTO 35013KT 10SM CLR 14/03 A3003 RMK AO2 SLP170 T01390033

Saat: 04:30 (10:30 UTC)


TAF: eksik

4.000'den fazla havaalanı için hava durumu gözlemleri ve tahminleri (METAR ve TAF raporları).

Kullanılabilir istasyonlar harita üzerinde sarı ve kırmızı noktalarla gösterilir.

İstasyonun adını görmek için fareyi noktanın üzerinde gezdirin.

Sonrasında hava gözlem ve tahminlerini görmek için tıklayın.

Haritayı değiştirmek için: yaklaştırmak için siyah artı işaretli yeşil düğmeye ve uzaklaştırmak için de eksi işaretli düğmeye hızla tıklayın; bitişik haritalar için yeşil okları kullanın.


METAR-TAF: